Stations météo

réclame
Mon MeteoGroup
Muenchen-Stadt, Allemagne (10865): Température de l'air & dewpoint: 19.03.2019 11:00:00 - 25.03.2019 11:00:00 (CET)Muenchen-Stadt, Allemagne (10865): Température de l'air 5cm & Température de l'air -5cm: 19.03.2019 11:00:00 - 25.03.2019 11:00:00 (CET)Muenchen-Stadt, Allemagne (10865): Température de l'air -20cm & Température de l'air -100cm: 19.03.2019 11:00:00 - 25.03.2019 11:00:00 (CET)Muenchen-Stadt, Allemagne (10865): Vitesse du vent & gusts: 19.03.2019 11:00:00 - 25.03.2019 11:00:00 (CET)Muenchen-Stadt, Allemagne (10865): Direction du vent: 19.03.2019 11:00:00 - 25.03.2019 11:00:00 (CET)Muenchen-Stadt, Allemagne (10865): reduced air pressure: 19.03.2019 11:00:00 - 25.03.2019 11:00:00 (CET)Muenchen-Stadt, Allemagne (10865): visibility: 19.03.2019 11:00:00 - 25.03.2019 11:00:00 (CET)Muenchen-Stadt, Allemagne (10865): Ensoleillement: 19.03.2019 11:00:00 - 25.03.2019 11:00:00 (CET)Muenchen-Stadt, Allemagne (10865): Quantités de précipitations: 19.03.2019 11:00:00 - 25.03.2019 11:00:00 (CET)
Date & Time tt [°C] td [°C] tt 5cm [°C] tt -5cm [°C] tt -20cm [°C] tt -100cm [°C] ff [km/h] ff [knt] fx [km/h] fx [knt] dd ppp [hPa] vv [km] sd [min] rr [mm]
25.03.2019 11:00:00 6,7 -2,9 8,5 10,2 8,8 7,0 24 13 51 27 NW 1020,7 37 10 0,0
25.03.2019 10:00:00 7,6 -1,3 10,5 9,6 8,8 7,0 26 14 46 25 WNW 1020,4 31 43 0,0
25.03.2019 09:00:00 6,4 -1,1 8,3 8,4 8,9 6,9 25 13 40 22 WNW 1020,7 27 18 0,0
25.03.2019 08:00:00 6,5 1,1 6,4 7,9 9,0 6,9 24 13 38 21 WNW 1020,6 17 0 0,0
25.03.2019 07:00:00 6,5 3,7 6,0 8,0 9,2 6,9 12 7 26 14 W 1020,2 7 0 0,0
25.03.2019 06:00:00 6,7 3,9 5,9 8,1 9,3 6,9 13 7 19 11 WSW 1020,0 6 0 0,0
25.03.2019 05:00:00 6,9 4,0 6,2 8,3 9,4 6,9 9 5 18 10 W 1020,2 6 0 0,0
25.03.2019 04:00:00 7,5 4,0 6,8 8,7 9,6 6,9 9 5 16 9 W 1020,4 7 0 0,0
25.03.2019 03:00:00 8,0 4,2 7,0 8,8 9,7 6,9 9 5 13 7 W 1020,3 8 0 0,0
25.03.2019 02:00:00 8,0 4,2 7,2 9,0 9,9 6,9 5 3 14 7 W 1020,9 8 0 0,0
25.03.2019 01:00:00 7,8 4,1 6,4 9,1 10,0 6,9 8 4 13 7 WNW 1021,5 8 0 0,0
25.03.2019 00:00:00 8,1 4,0 5,7 9,5 10,2 6,8 8 4 15 8 W 1022,1 9 0 0,0
24.03.2019 23:00:00 8,9 4,3 6,4 10,4 10,3 6,8 11 6 18 10 WNW 1022,5 9 0 0,0
24.03.2019 22:00:00 10,1 4,5 8,4 11,2 10,3 6,8 16 9 28 15 NNW 1022,4 10 0 0,0
24.03.2019 21:00:00 11,3 4,1 10,5 11,9 10,3 6,8 17 9 32 17 NW 1022,1 12 0 0,0
24.03.2019 20:00:00 12,3 5,1 11,0 12,5 10,3 6,8 20 11 41 22 NNW 1021,1 10 0 0,0
24.03.2019 19:00:00 14,4 4,0 12,4 13,6 10,1 6,8 14 7 29 16 NNW 1019,6 14 0 0,0
24.03.2019 18:00:00 16,0 3,6 14,1 15,1 9,8 6,8 12 7 27 15 N 1018,6 16 48 0,0
24.03.2019 17:00:00 17,1 2,2 17,0 17,0 9,4 6,8 13 7 31 17 WNW 1018,4 17 60 0,0
24.03.2019 16:00:00 17,7 2,1 21,0 17,9 9,0 6,8 11 6 27 15 WNW 1018,6 18 60 0,0
24.03.2019 15:00:00 17,2 1,9 23,3 18,1 8,5 6,7 13 7 24 13 NW 1019,2 18 60 0,0
24.03.2019 14:00:00 17,4 2,4 23,2 17,5 8,1 6,7 9 5 25 14 NNW 1019,8 17 60 0,0
24.03.2019 13:00:00 16,5 2,2 24,0 16,6 7,7 6,7 8 4 17 9 NNW 1020,6 15 60 0,0
24.03.2019 12:00:00 15,6 2,2 21,6 14,7 7,5 6,7 8 5 16 9 WNW 1021,5 16 60 0,0
24.03.2019 11:00:00 13,7 2,8 20,1 12,3 7,4 6,7 7 4 16 8 NW 1022,7 16 60 0,0
24.03.2019 10:00:00 11,9 2,1 15,6 9,6 7,5 6,7 5 3 11 6 W 1023,3 21 60 0,0
24.03.2019 09:00:00 8,9 1,6 11,6 7,0 7,6 6,7 6 4 13 7 W 1024,3 19 60 0,0
24.03.2019 08:00:00 6,9 1,5 6,1 5,1 7,8 6,7 6 3 10 6 WSW 1025,0 20 60 0,0
24.03.2019 07:00:00 4,1 1,0 1,5 4,9 8,0 6,7 6 3 10 5 WSW 1025,8 19 15 0,0
24.03.2019 06:00:00 3,7 0,8 1,1 5,2 8,2 6,7 5 3 10 6 SSW 1025,9 20 0 0,0
24.03.2019 05:00:00 5,1 1,5 1,3 5,5 8,4 6,6 6 3 8 5 S 1025,6 21 0 0,0
24.03.2019 04:00:00 4,4 1,2 1,4 6,0 8,6 6,6 5 3 10 6 WNW 1025,9 18 0 0,0
24.03.2019 03:00:00 5,4 1,8 1,5 6,4 8,8 6,6 6 4 10 5 SSW 1026,0 24 0 0,0
24.03.2019 02:00:00 5,5 2,0 1,7 6,9 9,0 6,6 4 2 7 4 SW 1026,6 18 0 0,0
24.03.2019 01:00:00 6,3 2,5 2,8 7,5 9,2 6,6 4 2 7 4 SW 1026,8 16 0 0,0
24.03.2019 00:00:00 6,9 2,4 2,8 8,1 9,4 6,6 3 2 7 4 W 1027,2 16 0 0,0
23.03.2019 23:00:00 8,8 2,9 5,3 8,7 9,5 6,6 5 3 14 8 SW 1027,1 15 0 0,0
23.03.2019 22:00:00 8,9 2,8 4,6 9,5 9,6 6,6 5 3 7 4 SSW 1027,3 16 0 0,0
23.03.2019 21:00:00 10,3 2,8 4,8 10,4 9,6 6,6 3 2 4 2 E 1027,0 17 0 0,0
23.03.2019 20:00:00 11,9 2,9 7,5 11,5 9,5 6,6 3 1 6 4 N 1026,4 17 0 0,0
23.03.2019 19:00:00 14,0 2,2 9,6 13,0 9,4 6,6 5 3 11 6 N 1025,4 19 17 0,0
23.03.2019 18:00:00 16,5 1,5 14,0 14,8 9,0 6,6 8 4 16 8 N 1024,7 22 60 0,0
23.03.2019 17:00:00 17,8 1,5 17,7 17,0 8,6 6,6 9 5 17 9 N 1024,5 21 60 0,0
23.03.2019 16:00:00 18,0 -0,9 22,9 17,9 8,1 6,6 8 5 19 11 NW 1024,6 27 60 0,0
23.03.2019 15:00:00 18,1 -0,2 23,4 17,9 7,5 6,6 6 3 24 13 NW 1024,8 27 60 0,0
23.03.2019 14:00:00 18,1 0,7 23,5 17,2 7,1 6,5 9 5 23 12 NNW 1025,2 25 60 0,0
23.03.2019 13:00:00 17,2 0,8 23,4 16,0 6,7 6,5 10 5 18 10 NW 1025,8 24 60 0,0
23.03.2019 12:00:00 16,3 0,6 21,4 14,0 6,4 6,5 6 3 18 10 WSW 1026,4 33 60 0,0
23.03.2019 11:00:00 15,0 0,3 20,2 11,4 6,3 6,5 8 5 18 10 W 1027,3 30 60 0,0
23.03.2019 10:00:00 13,3 -0,6 17,8 8,4 6,4 6,5 9 5 16 8 W 1027,8 35 60 0,0
23.03.2019 09:00:00 11,5 0,6 11,7 5,1 6,5 6,5 6 3 13 7 SW 1028,2 46 60 0,0
23.03.2019 08:00:00 8,1 0,5 5,2 3,9 6,7 6,5 7 4 13 7 SSW 1028,9 41 60 0,0
23.03.2019 07:00:00 4,2 0,4 0,6 3,7 6,9 6,5 6 4 13 7 SSW 1029,8 37 21 0,0
23.03.2019 06:00:00 4,2 0,2 0,2 3,9 7,1 6,5 6 4 14 8 SSW 1029,5 35 0 0,0
23.03.2019 05:00:00 3,8 0,6 -0,3 4,2 7,3 6,5 8 4 14 8 SSW 1029,3 35 0 0,0
23.03.2019 04:00:00 3,2 0,1 -0,6 4,6 7,4 6,5 6 3 9 5 WSW 1029,5 32 0 0,0
23.03.2019 03:00:00 3,4 0,1 0,4 5,0 7,6 6,5 6 4 13 7 SSW 1029,5 32 0 0,0
23.03.2019 02:00:00 4,1 0,1 0,7 5,5 7,8 6,5 6 4 11 6 SSW 1029,6 40 0 0,0
23.03.2019 01:00:00 6,8 0,7 2,8 6,1 8,0 6,5 9 5 16 8 SSW 1029,2 38 0 0,0
23.03.2019 00:00:00 8,3 1,5 5,7 6,5 8,1 6,5 10 5 14 8 SSW 1028,8 30 0 0,0
22.03.2019 23:00:00 7,1 1,5 3,0 7,0 8,2 6,5 5 3 11 6 S 1029,3 32 0 0,0
22.03.2019 22:00:00 7,3 1,9 2,4 7,7 8,3 6,5 5 3 9 5 SE 1029,6 29 0 0,0
22.03.2019 21:00:00 8,3 1,7 3,7 8,6 8,4 6,5 6 3 8 5 SE 1029,3 27 0 0,0
22.03.2019 20:00:00 9,7 1,5 4,5 9,6 8,3 6,5 6 3 9 5 SE 1028,9 31 0 0,0
22.03.2019 19:00:00 11,7 0,9 7,7 11,0 8,1 6,5 6 4 11 6 ESE 1028,5 37 0 0,0
22.03.2019 18:00:00 13,7 -0,1 10,2 12,8 7,8 6,5 6 4 11 6 E 1028,2 38 13 0,0
22.03.2019 17:00:00 15,4 -2,3 16,0 14,8 7,3 6,5 5 3 14 7 ENE 1027,7 42 57 0,0
22.03.2019 16:00:00 16,1 -2,3 19,9 15,7 6,8 6,5 9 5 18 10 E 1027,9 46 60 0,0
22.03.2019 15:00:00 14,7 -2,3 17,4 15,5 6,4 6,5 8 5 18 10 E 1028,5 44 60 0,0
22.03.2019 14:00:00 14,8 -1,0 20,4 15,0 5,9 6,5 10 6 18 10 ESE 1029,0 43 60 0,0
22.03.2019 13:00:00 14,0 0,5 20,4 13,7 5,6 6,5 11 6 23 12 E 1029,5 54 60 0,0
22.03.2019 12:00:00 12,9 -0,1 18,9 11,8 5,4 6,4 11 6 21 11 ENE 1030,1 40 60 0,0
22.03.2019 11:00:00 11,7 -2,4 16,3 9,0 5,3 6,4 6 3 14 8 E 1030,6 38 60 0,0
22.03.2019 10:00:00 9,6 -1,8 13,1 5,5 5,4 6,4 8 4 14 7 ESE 1031,0 43 60 0,0
22.03.2019 09:00:00 7,4 -1,3 4,9 2,6 5,6 6,4 4 2 11 6 ESE 1031,7 37 60 0,0
22.03.2019 08:00:00 4,8 -1,5 1,9 2,2 5,7 6,4 5 3 8 4 ESE 1032,5 32 60 0,0
22.03.2019 07:00:00 0,6 -2,8 -2,2 2,2 5,9 6,4 4 2 6 3 NE 1033,2 34 27 0,0
22.03.2019 06:00:00 0,3 -3,4 -3,0 2,4 6,1 6,4 3 2 5 3 E 1032,9 38 0 0,0
22.03.2019 05:00:00 1,0 -3,4 -2,2 2,7 6,2 6,4 5 3 8 5 E 1032,6 41 0 0,0
22.03.2019 04:00:00 1,5 -3,3 -1,6 3,0 6,4 6,4 5 3 11 6 E 1032,5 40 0 0,0
22.03.2019 03:00:00 3,3 -2,9 -0,3 3,3 6,6 6,4 8 4 14 7 E 1032,1 41 0 0,0
22.03.2019 02:00:00 3,5 -2,9 -0,7 3,7 6,8 6,4 8 4 11 6 E 1032,5 41 0 0,0
22.03.2019 01:00:00 3,4 -3,2 -1,9 4,2 7,0 6,4 5 3 9 5 E 1032,7 41 0 0,0
22.03.2019 00:00:00 3,4 -3,8 -0,5 4,7 7,1 6,4 6 4 9 5 E 1033,0 43 0 0,0
21.03.2019 23:00:00 4,5 -3,1 0,7 5,2 7,3 6,4 5 3 10 5 E 1033,0 45 0 0,0
21.03.2019 22:00:00 6,2 -3,7 0,7 5,9 7,4 6,4 8 4 11 6 E 1032,6 43 0 0,0
21.03.2019 21:00:00 6,7 -3,3 2,4 6,8 7,4 6,4 7 4 12 7 E 1032,5 48 0 0,0
21.03.2019 20:00:00 8,3 -3,1 3,9 7,8 7,3 6,4 8 4 15 8 E 1032,3 50 0 0,0
21.03.2019 19:00:00 9,6 -3,1 5,9 9,1 7,2 6,4 9 5 25 13 ENE 1031,7 44 22 0,0
21.03.2019 18:00:00 10,9 -3,9 8,7 10,7 6,9 6,4 15 8 31 17 ENE 1031,0 48 60 0,0
21.03.2019 17:00:00 11,8 -4,6 11,9 12,7 6,5 6,4 18 10 30 16 NE 1030,8 54 60 0,0
21.03.2019 16:00:00 12,6 -4,0 17,7 13,6 6,0 6,4 14 7 32 17 ENE 1030,7 49 60 0,0
21.03.2019 15:00:00 12,3 -3,8 18,7 13,6 5,6 6,4 16 9 35 19 ENE 1031,1 44 60 0,0
21.03.2019 14:00:00 11,9 -3,6 16,7 12,9 5,2 6,4 17 9 34 19 E 1031,7 45 60 0,0
21.03.2019 13:00:00 10,4 -2,6 16,7 11,5 5,0 6,4 16 9 37 20 ENE 1032,9 46 60 0,0
21.03.2019 12:00:00 9,5 -4,9 14,0 9,5 4,8 6,4 21 11 34 19 E 1033,6 47 60 0,0
21.03.2019 11:00:00 8,3 -4,3 14,1 6,8 4,8 6,4 19 11 30 16 E 1034,1 42 60 0,0
21.03.2019 10:00:00 6,9 -4,0 9,4 3,0 5,0 6,4 14 8 31 17 E 1034,8 44 60 0,0
21.03.2019 09:00:00 4,7 -4,1 2,2 1,6 5,1 6,4 11 6 21 12 E 1035,4 47 60 0,0
21.03.2019 08:00:00 2,0 -3,7 -0,9 1,6 5,2 6,4 9 5 14 8 E 1035,6 40 60 0,0
21.03.2019 07:00:00 -0,5 -3,8 -3,4 1,7 5,4 6,4 4 2 11 6 ESE 1035,8 39 26 0,0
21.03.2019 06:00:00 -0,9 -3,8 -3,9 1,9 5,5 6,4 5 3 10 5 ESE 1036,1 39 0 0,0
21.03.2019 05:00:00 -0,8 -4,0 -4,1 2,1 5,7 6,4 6 3 12 6 E 1036,5 39 0 0,0
21.03.2019 04:00:00 0,5 -4,0 -2,6 2,3 5,8 6,4 8 4 13 7 E 1036,2 40 0 0,0
21.03.2019 03:00:00 1,2 -3,9 -2,4 2,5 6,0 6,4 9 5 14 7 ESE 1035,9 46 0 0,0
21.03.2019 02:00:00 1,5 -3,7 -2,0 2,8 6,2 6,4 4 2 11 6 ESE 1036,4 42 0 0,0
21.03.2019 01:00:00 2,2 -4,0 -1,9 3,1 6,4 6,4 6 3 11 6 ESE 1036,4 43 0 0,0
21.03.2019 00:00:00 2,5 -3,9 -1,3 3,5 6,5 6,4 6 3 13 7 SE 1036,5 44 0 0,0
20.03.2019 23:00:00 3,4 -3,8 -0,9 4,0 6,7 6,4 8 4 14 7 SE 1036,4 46 0 0,0
20.03.2019 22:00:00 3,5 -4,2 0,0 4,6 6,8 6,4 6 4 12 7 ESE 1036,4 47 0 0,0
20.03.2019 21:00:00 4,6 -4,0 0,5 5,4 6,8 6,4 8 4 12 7 ESE 1035,8 46 0 0,0
20.03.2019 20:00:00 5,0 -4,1 2,1 6,3 6,8 6,4 6 3 11 6 ENE 1035,7 41 0 0,0
20.03.2019 19:00:00 6,4 -4,6 3,1 7,5 6,7 6,5 8 4 19 10 ENE 1034,9 56 21 0,0
20.03.2019 18:00:00 7,6 -4,8 5,7 9,1 6,4 6,5 15 8 21 11 NE 1034,2 55 60 0,0
20.03.2019 17:00:00 8,3 -5,3 8,7 11,2 6,1 6,5 10 6 20 11 ENE 1033,5 53 60 0,0
20.03.2019 16:00:00 8,8 -5,8 12,4 12,1 5,7 6,5 10 5 21 12 E 1033,6 59 60 0,0
20.03.2019 15:00:00 8,2 -5,7 13,1 11,7 5,4 6,5 6 4 23 12 E 1033,9 50 59 0,0
20.03.2019 14:00:00 8,9 -6,0 14,6 10,2 5,1 6,5 5 3 19 11 E 1034,2 50 50 0,0
20.03.2019 13:00:00 7,6 -6,3 12,3 8,5 4,9 6,5 4 2 19 11 E 1034,8 67 30 0,0
20.03.2019 12:00:00 6,3 -6,5 7,6 8,5 4,8 6,4 6 3 23 12 ENE 1035,1 53 42 0,0
20.03.2019 11:00:00 7,5 -5,7 12,9 6,4 4,8 6,4 9 5 24 13 ENE 1034,8 75 60 0,0
20.03.2019 10:00:00 6,2 -6,1 10,9 2,8 4,9 6,4 10 6 18 10 E 1034,8 53 60 0,0
20.03.2019 09:00:00 4,3 -1,8 1,3 1,7 5,0 6,4 2 1 6 3 NE 1034,9 39 60 0,0
20.03.2019 08:00:00 1,6 -1,8 -1,3 1,7 5,2 6,4 4 2 6 3 WSW 1035,3 35 54 0,0
20.03.2019 07:00:00 -0,3 -2,3 -3,0 1,8 5,3 6,4 3 2 5 3 SW 1035,2 35 0 0,0
20.03.2019 06:00:00 -1,4 -3,1 -4,7 1,9 5,4 6,4 4 2 6 3 SW 1034,8 34 0 0,0
20.03.2019 05:00:00 -0,4 -2,6 -4,2 2,1 5,6 6,4 6 3 7 4 WSW 1034,2 36 0 0,0
20.03.2019 04:00:00 -0,7 -3,0 -4,0 2,4 5,7 6,4 5 3 8 4 S 1034,0 38 0 0,0
20.03.2019 03:00:00 0,3 -2,7 -3,1 2,7 5,9 6,4 4 2 10 5 SSW 1033,9 33 0 0,0
20.03.2019 02:00:00 1,2 -2,6 -1,2 3,0 6,0 6,4 2 1 12 6 NNW 1033,9 32 0 0,0
20.03.2019 01:00:00 1,9 -2,3 0,2 3,2 6,2 6,5 5 3 13 7 W 1033,5 33 0 0,0
20.03.2019 00:00:00 1,8 -2,7 -1,2 3,4 6,3 6,5 4 2 8 5 W 1033,1 32 0 0,0
19.03.2019 23:00:00 2,1 -3,2 -0,5 3,6 6,5 6,5 0 0 6 3 N 1032,7 38 0 0,0
19.03.2019 22:00:00 2,1 -3,7 -2,0 3,9 6,6 6,5 4 2 7 4 E 1032,3 42 0 0,0
19.03.2019 21:00:00 2,4 -3,7 -1,5 4,6 6,7 6,5 6 3 9 5 NNE 1031,9 48 0 0,0
19.03.2019 20:00:00 3,7 -3,5 -0,1 5,4 6,7 6,5 3 2 7 4 NNW 1030,9 43 0 0,0
19.03.2019 19:00:00 5,4 -3,8 2,7 6,4 6,7 6,5 7 4 14 8 N 1029,9 51 17 0,0
19.03.2019 18:00:00 6,3 -4,0 4,4 7,7 6,6 6,5 7 4 21 11 N 1028,8 51 60 0,0
19.03.2019 17:00:00 6,8 -3,1 7,5 9,0 6,4 6,5 11 6 24 13 N 1028,1 47 39 0,0
19.03.2019 16:00:00 6,6 -4,2 7,7 9,2 6,2 6,5 12 6 29 16 WNW 1027,8 64 32 0,0
19.03.2019 15:00:00 6,6 -3,8 6,8 8,9 5,9 6,5 11 6 24 13 NNW 1027,6 55 7 0,0
19.03.2019 14:00:00 6,6 -3,5 8,7 9,9 5,6 6,5 11 6 21 11 NNE 1027,5 48 13 0,0
19.03.2019 13:00:00 6,3 -2,3 7,6 11,2 5,3 6,4 13 7 24 13 N 1027,5 47 40 0,0
19.03.2019 12:00:00 5,4 -1,2 6,3 10,3 5,0 6,4 7 4 15 8 WNW 1027,9 41 44 0,0
19.03.2019 11:00:00 4,6 -0,7 7,9 8,7 4,9 6,4 9 5 17 9 NW 1028,0 41 37 0,0

tt = Température de l'air
td = dewpoint
tt 5cm = Température de l'air 5cm
tt -5cm = Température de l'air -5cm
tt -20cm = Température de l'air -20cm
tt -100cm = Température de l'air -100cm
ff = Vitesse du vent
fx = gusts
dd = Direction du vent
ppp = reduced air pressure
vv = visibility
sd = Ensoleillement
rr = Quantités de précipitations

stations d'obs. à proximité